Location: ???? ??????
(31.0691°N, 31.7360°E)
Time: 05:01:35
(UTC+00:00)

Daily predictions for brighter satellites

Satellite Brightness Start Highest point End
(mag) Time Altitude Azimuth Time Altitude Azimuth Time Altitude Azimuth
Cosmos 2237 Rocket 4.1 01:05:41 24° NE 01:05:41 24° NE 01:07:52 10° NNE
Milstar 3 3.8 01:18:17 37° SSE 01:18:17 37° SSE 01:24:22 10° E
ATLAS 2AS CENTAUR R/B 3.7 01:29:02 41° NNW 01:29:02 41° NNW 01:34:44 10° NNE
USA 238 DEB 3.7 01:37:59 69° NNW 01:39:04 90° WSW 01:46:33 10° SSE
USA 238 3.7 01:38:01 67° NNW 01:39:10 89° ENE 01:46:39 10° SSE
H-2A ROCKET BODY 4.3 01:39:17 41° SW 01:44:18 67° SSE 02:53:49 10° E
Cosmos 2184 Rocket 3.9 01:49:31 26° S 01:53:14 90° ENE 01:59:31 10° N
MSX 3.8 01:47:52 10° NNE 01:53:37 81° ESE 01:56:50 28° S
SL-16 R/B 2.7 01:52:51 18° S 01:56:58 58° ESE 02:02:31 10° NNE
CZ-2C R/B 3.2 01:53:33 10° NNE 01:58:37 54° E 02:03:33 10° S
SL-8 R/B 4.3 01:59:43 48° SSE 02:00:19 51° SE 02:04:58 10° ENE
NOSS 3-2 (A) 4.0 01:58:26 30° NW 02:02:55 75° WSW 02:11:28 10° SSE
IDEFIX/ARIANE 42P 4.0 01:58:20 10° N 02:00:32 25° N 02:00:32 25° N
Milstar 3 Cent rocket 2.9 02:03:23 38° SSW 02:04:56 46° SSE 02:09:33 10° E
RESURS DK-1 2.9 02:08:36 49° NNE 02:08:36 49° NNE 02:11:41 10° NNE
Cosmos 676 Rocket 3.8 02:07:26 54° SSW 02:08:39 81° WNW 02:13:55 10° NNE
Cosmos 2278 Rocket 2.1 02:10:09 22° NNW 02:13:57 85° WSW 02:19:36 10° SSE
Cosmos 2074 Rocket 4.1 02:20:19 29° SW 02:23:08 47° W 02:29:07 10° N
NOSS 3-2 (C) 4.1 02:20:15 10° NNW 02:28:14 77° WSW 02:36:49 10° SSE
Centaur D-1AR AC-39 3.2 02:28:16 20° SSW 02:29:44 25° SSE 02:34:22 10° ESE
Okean O Rocket 4.2 02:29:44 10° NE 02:33:08 22° E 02:36:30 10° SSE
USA 234 3.9 02:27:05 10° ESE 02:33:24 54° NE 02:39:45 10° NNW
CZ-4B R/B 3.8 02:31:56 10° N 02:36:02 71° WNW 02:40:17 10° SSW
In-Cosmos 22 4.0 02:39:38 10° SSW 02:44:55 71° W 02:50:20 10° N
BREEZE-M DEB (TANK) 3.4 02:30:42 10° SW 02:45:00 79° NW 02:48:30 10° NE
Meteor 2-5 Rocket 4.2 02:40:03 10° S 02:45:45 68° E 02:51:35 10° NNE
Cosmos 2237 Rocket 3.8 02:47:34 16° NW 02:47:34 16° NW 02:50:18 10° NNW
Cosmos 1850 Rocket 4.0 02:42:03 10° SSW 02:47:13 83° ESE 02:52:24 10° NNE
Cosmos 1437 Rocket 2.5 02:44:33 10° SSW 02:48:19 76° W 02:52:06 10° N
Cosmos 1892 Rocket 3.6 02:44:06 10° SSW 02:48:28 57° W 02:52:48 10° N
Meteor PRIRODA 3.5 02:44:55 10° N 02:48:39 76° WNW 02:52:20 10° SSW
BREEZE-M DEB (TANK) 4.3 02:46:31 13° SSW 02:49:23 66° SE 02:58:36 10° NE
ATLAS 3B R/B 2.6 02:50:04 10° NNW 02:56:49 74° WSW 03:03:45 10° SSE
ALOS 3.4 02:55:03 10° NNE 02:59:34 48° E 03:04:03 10° S
H-2A R/B 4.4 03:01:03 10° NNW 03:02:19 14° NW 03:02:19 14° NW
CZ-4B DEB 4.3 02:58:43 10° NNE 03:04:11 85° ESE 03:09:38 10° SSW
GP-B 3.1 03:01:03 10° S 03:05:26 62° W 03:09:50 10° N
PSLV R/B 3.8 03:02:22 10° N 03:05:57 50° WNW 03:09:32 10° SSW
CENTAUR R/B 3.3 02:58:29 10° NW 03:06:44 61° WSW 03:15:15 10° SSE
Cosmos 1606 Rocket 4.0 03:03:03 10° NNW 03:07:02 37° W 03:11:01 10° SSW
BREEZE-M DEB (TANK) 2.8 03:10:12 18° W 03:11:32 24° SW 03:13:24 10° S
Cosmos 44 4.0 03:08:53 14° WNW 03:11:35 26° WSW 03:15:11 10° SSW
Cosmos 1908 3.6 03:08:36 10° N 03:12:25 66° E 03:16:10 10° SSE
Delta 7925 Rocket 4.1 03:07:21 14° WSW 03:12:51 54° S 03:17:58 10° ESE
Cosmos 1953 3.5 03:13:35 10° NW 03:16:34 20° W 03:19:33 10° SW
Cosmos 1726 2.1 03:13:38 10° NNW 03:17:14 58° W 03:20:51 10° S
PAYLOAD B 4.2 03:11:41 10° N 03:17:15 82° WNW 03:22:45 10° SSW
CZ-4B R/B 3.4 03:14:17 10° NNE 03:19:34 76° ESE 03:24:52 10° S
IUS-9 SRM-1 3.4 03:18:16 11° WSW 03:20:33 39° S 03:27:50 10° ESE
CZ-4B R/B 4.3 03:19:42 10° NNW 03:22:11 17° WNW 03:24:37 10° WSW
Cosmos 1626 Rocket 3.4 03:19:06 10° S 03:23:24 74° W 03:27:42 10° N
Cosmos 2218 Rocket 4.0 03:19:45 10° S 03:26:08 78° W 03:32:30 10° N
Meteor 1-31 Rocket 4.4 03:24:14 10° NW 03:26:13 14° WNW 03:28:13 10° WSW
Cosmos 44 Rocket 3.4 03:22:58 10° NNW 03:27:39 74° ENE 03:32:19 10° SSE
COSMO-SKYMED 1 2.6 03:26:09 10° S 03:30:27 66° W 03:34:46 10° NNW
Cosmos 1674 3.6 03:29:12 10° SW 03:32:20 26° W 03:35:30 10° NNW
SeaSat 1 3.5 03:27:48 10° NE 03:32:36 51° ESE 03:37:22 10° S
Cosmos 1943 Rocket 3.7 03:29:07 10° N 03:34:25 39° ENE 03:39:41 10° SE
COBE Rocket 4.1 03:30:43 10° S 03:35:34 52° W 03:40:34 10° NNW
CZ-2C R/B 4.1 03:33:37 10° NW 03:36:17 14° WNW 03:38:56 10° W
FENGYUN 3A 3.7 03:33:58 10° N 03:39:22 68° WNW 03:44:45 10° SSW
Cosmos 2228 4.4 03:36:37 10° NW 03:39:25 17° W 03:42:13 10° SW
METEOR-M 4.2 03:35:03 10° N 03:40:17 60° WNW 03:45:31 10° SSW
Cosmos 1603 3.7 03:35:13 10° SSW 03:40:44 62° WNW 03:46:21 10° NNE
SL-16 R/B 3.7 03:38:03 10° W 03:41:25 16° WNW 03:44:49 10° NNW
Meteor 1-24 Rocket 4.0 03:35:55 10° SSW 03:41:26 51° W 03:47:09 10° N
